Location: Paral?musa
(36.4141°N, 30.3239°E)
Time: 10:34:55
(UTC+00:00)

Daily predictions for brighter satellites

Satellite Brightness Start Highest point End
(mag) Time Altitude Azimuth Time Altitude Azimuth Time Altitude Azimuth
Timation 2 Rocket 4.0 17:32:55 10° SSW 17:39:15 68° ESE 17:45:20 10° NNE
MOS 1-B Rocket 4.1 17:33:33 10° SSE 17:39:18 73° ENE 17:45:49 10° N
Hubble Space Telescope 2.4 17:37:52 10° WSW 17:40:45 19° SSW 17:43:39 10° SE
Cosmos 1975 Rocket 4.3 17:39:54 10° SE 17:43:28 24° E 17:47:02 10° NE
Cosmos 1455 Rocket 4.4 17:40:25 10° NNE 17:43:48 22° ENE 17:47:09 10° SE
Okean 1 Rocket 3.3 17:39:29 10° N 17:43:52 56° E 17:48:15 10° SSE
SJ-6B 3.9 17:40:40 10° S 17:44:22 46° W 17:48:08 10° NNW
PAYLOAD B 4.3 17:38:53 10° SSE 17:44:23 86° WSW 17:49:54 10° NNW
CZ-4 R/B 1.9 17:42:28 10° S 17:46:27 63° WSW 17:50:24 10° NNW
USA 186 1.6 17:43:55 10° SSE 17:46:58 87° E 17:50:01 10° N
CZ-4B R/B 3.7 17:43:59 10° S 17:47:53 50° W 17:51:38 10° NNW
Cosmos 2098 Rocket 3.5 17:45:52 10° NNW 17:49:19 45° W 17:52:17 10° SSW
GP-B 3.4 17:52:05 10° NNE 17:56:21 46° E 18:00:34 10° SSE
Cosmos 921 Rocket 3.4 17:52:39 10° N 17:56:41 44° ENE 18:00:45 10° SE
Cosmos 2181 Rocket 4.0 17:53:40 10° N 17:59:53 89° E 18:06:09 10° S
MOS 1-B 4.4 17:59:58 10° SSE 18:05:46 85° ENE 18:11:36 10° NNW
SL-24 R/B 3.8 18:02:35 10° SSE 18:06:16 90° SSW 18:10:20 10° NNW
PSLV R/B 3.7 18:02:56 10° SSE 18:06:23 55° ENE 18:09:55 10° N
USA 276 3.3 18:04:43 10° NNW 18:07:21 29° NNE 18:09:35 13° E
ATLAS 3B R/B 4.0 18:03:53 10° SE 18:08:17 18° ESE 18:12:51 10° ENE
ATLAS CENTAUR R/B 1.4 18:06:03 10° NNW 18:10:06 65° ENE 18:13:28 15° SE
Cosmos 1833 Rocket 4.1 18:06:07 10° N 18:10:36 24° ENE 18:14:22 13° ESE
ARGOS Delta rocket 3.9 18:07:27 10° SSE 18:12:06 67° ENE 18:17:04 10° N
H-II Stage 2 3.1 18:10:19 10° SW 18:12:41 26° SSE 18:16:27 14° ESE
CZ-4B R/B 3.7 18:08:39 10° S 18:14:07 63° WSW 18:19:41 10° NNW
Cosmos 2184 Rocket 4.3 18:16:25 10° SSW 18:22:46 74° W 18:29:05 10° N
Okean O Rocket 1.8 18:20:07 10° S 18:24:24 69° W 18:28:43 10° NNW
H-2A R/B 2.6 18:20:59 10° SW 18:25:16 25° SSE 18:26:43 21° SE
USA 215 4.3 18:20:36 10° E 18:26:22 35° NNE 18:32:10 10° NNW
Resurs 01 Rocket 2.8 18:22:33 10° S 18:26:41 41° W 18:30:50 10° NNW
Cosmos 2082 Rocket 4.4 18:33:29 10° NE 18:34:10 10° NE 18:34:50 10° NE
Cosmos 2278 Rocket 2.7 18:30:31 11° S 18:35:31 37° ESE 18:40:41 10° NE
SL-8 R/B 4.5 18:33:11 10° SSW 18:37:15 28° SE 18:41:19 10° ENE
Ariane Rocket 4.2 18:36:58 20° ESE 18:39:05 26° ENE 18:43:14 10° NNE
NOSS 3-1 (C) 2.7 18:36:18 10° SSW 18:40:55 78° ESE 18:46:17 10° NE
Cosmos 2341 Rocket 4.3 18:38:00 17° SSE 18:42:31 48° E 18:48:33 10° NNE
IRS-1A Rocket 4.5 18:39:11 22° SE 18:42:47 56° ENE 18:48:26 10° N
CZ-2C R/B 3.9 18:41:46 12° S 18:45:10 84° W 19:03:24 10° N
Cosmos 1048 Rocket 4.5 18:41:01 10° NNW 18:46:18 60° WSW 18:50:34 16° S
Cosmos 2298 Rocket 4.0 18:42:08 10° SSW 18:47:27 86° ESE 18:52:48 10° NNE
Cosmos 1943 Rocket 3.0 18:47:36 26° SE 18:49:00 29° ESE 18:53:48 10° NE
Cosmos 1869 3.3 18:46:00 10° N 18:49:47 55° E 18:50:58 38° SE
Okean-O 3.3 18:56:48 18° S 18:59:53 51° W 19:04:11 10° NNW
Meteor 2-1 Rocket 4.1 18:54:39 10° N 19:00:13 86° W 19:03:35 25° S
Cosmos 1606 2.3 18:57:42 10° N 19:01:14 89° E 19:02:03 51° S
Cosmos 1544 Rocket 3.6 18:57:53 10° N 19:02:09 57° E 19:03:13 43° SE
GENESIS II 3.8 19:03:12 10° NNW 19:06:45 73° ENE 19:07:04 66° ESE
SPOT 5 3.5 19:08:11 22° S 19:11:16 55° W 19:16:21 10° NNW
OAO 3 Rocket 3.3 19:08:44 10° SW 19:13:04 47° SSE 19:13:04 47° SSE
MOS 1 Rocket 3.1 19:12:08 45° SSE 19:13:31 80° ENE 19:17:56 10° N
Terra 1.7 19:19:05 46° SSE 19:20:30 89° WSW 19:25:15 10° NNW
USA 290 3.2 19:22:32 38° NNE 19:22:32 38° NNE 19:24:38 10° NNE
NOSS 3-1 (A) 2.7 19:19:11 29° SSW 19:21:36 72° ESE 19:26:57 10° NE
Cosmos 2366 rocket 3.9 19:20:50 28° S 19:24:15 86° E 19:30:25 10° N
SL-8 Rocket 4.1 19:26:42 21° SSW 19:31:03 73° W 19:37:22 10° N
BREEZE-M R/B 4.2 19:28:56 10° W 19:32:35 44° NNW 19:40:01 10° NE
Cosmos 1437 Rocket 3.9 19:31:50 27° WSW 19:33:06 36° WNW 19:36:29 10° N
ISS -0.8 19:33:22 10° N 19:34:06 11° NNE 19:34:50 10° NNE
ERS-1 Rocket 3.5 19:32:51 35° SSW 19:34:42 54° W 19:39:36 10° NNW
Cosmos 1959 Rocket 4.5 19:32:00 31° S 19:35:19 86° W 19:41:39 10° N
Cosmos 2228 2.9 19:32:21 10° NNW 19:36:31 71° W 19:36:50 67° SW
SPOT 3 Rocket 3.5 19:41:40 56° S 19:42:46 80° WSW 19:48:01 10° NNW
OAO 1 4.4 19:41:26 10° W 19:46:57 79° S 19:47:37 68° ESE
Cosmos 614 Rocket 3.9 19:43:49 10° NNW 19:48:50 70° WSW 19:49:28 62° SSW
Spot 2 Rocket 4.0 19:48:44 44° SW 19:49:57 54° W 19:54:56 10° NNW
USA 229 DEB 4.4 19:51:51 31° E 19:51:51 31° E 19:56:00 10° NE
USA 229 4.4 19:52:02 31° E 19:52:02 31° E 19:56:07 10° NE
Cosmos 1536 Rocket 4.5 19:51:25 36° WSW 19:52:25 43° W 19:56:32 10° N
Cosmos 1833 Rocket 3.4 19:49:20 10° NW 19:54:41 44° WSW 19:56:04 37° SW
ATLAS 3B R/B 2.9 19:51:04 10° SW 19:58:02 78° WNW 20:05:36 10° NNE
SL-08 R/B 4.4 20:00:34 60° ESE 20:00:58 62° E 20:06:58 10° NNE
Gblst 52 Del rocket 4.0 20:03:38 78° SSE 20:03:43 78° SE 20:09:14 10° NE
USA 215 3.2 20:07:50 58° S 20:09:01 71° SW 20:15:35 10° NW
Landsat 5 4.1 20:07:16 10° N 20:11:19 55° WNW 20:11:19 55° WNW
Milstar 3 3.8 20:10:05 10° SW 20:17:42 48° SSE 20:31:01 10° E
Ariane Rocket 4.2 20:17:06 30° WSW 20:17:50 32° W 20:22:20 10° NW
Cosmos 2369 Rocket 3.8 20:20:27 22° ENE 20:20:27 22° ENE 20:22:54 10° NE
Cosmos 2082 Rocket 2.1 20:13:33 10° NNW 20:19:04 75° NE 20:19:04 75° NE
SL-8 R/B 4.3 20:14:45 10° WSW 20:19:26 55° NNW 20:24:10 10° NE
Cosmos 2278 Rocket 4.0 20:14:50 10° WSW 20:19:36 28° WNW 20:24:25 10° N
Cosmos 1934 Rocket 4.2 20:20:12 54° E 20:20:12 54° E 20:25:57 10° NNE
ARIANE 5 R/B 3.8 20:33:40 37° NNE 20:33:40 37° NNE 20:36:38 10° N
Cosmos 1943 Rocket 3.6 20:29:00 17° WSW 20:32:34 34° WNW 20:37:39 10° N
ULPM Upper Stage 4.0 20:30:23 10° NNW 20:33:14 39° NNW 20:33:14 39° NNW
Cosmos 1932 4.5 20:49:55 10° NNW 20:55:35 72° WNW 20:55:35 72° WNW
Cosmos 407 Rocket 4.3 20:53:47 10° N 20:57:43 48° NNE 20:57:43 48° NNE
CZ-4C R/B 3.3 20:53:35 10° NNW 21:01:06 64° NE 21:02:40 55° E
COSMOS 2406 3.8 20:58:14 10° NNW 21:02:48 50° WNW 21:02:48 50° WNW
Cosmos 1605 Rocket 4.1 21:07:58 64° NE 21:07:58 64° NE 21:13:13 10° N
Lacrosse 5 rocket 4.1 21:10:42 13° NNE 21:10:42 13° NNE 21:11:15 10° NNE
Cosmos 1140 Rocket 4.4 21:06:43 10° NNW 21:10:17 42° NW 21:10:17 42° NW
Cosmos 1656 Rocket 4.5 21:25:53 45° NW 21:25:53 45° NW 21:30:39 10° N
USA 281 4.2 21:30:09 35° ENE 21:31:03 36° ENE 21:36:56 10° N
Lacrosse 4 Rocket 3.9 21:35:13 19° N 21:35:13 19° N 21:36:30 10° NNE
Meteor 2-3 Rocket 4.4 21:39:50 49° NW 21:39:50 49° NW 21:44:24 10° N
Gbstr 26 Del rocket 4.4 21:36:30 10° NW 21:41:03 52° N 21:41:03 52° N
Cosmos 2369 Rocket 3.5 22:02:12 33° NW 22:02:12 33° NW 22:07:00 10° N
SeaSat 1 3.7 22:04:43 37° NNW 22:04:43 37° NNW 22:07:37 10° NNW
COSMOS 2455 3.3 22:14:00 10° NNW 22:18:58 58° N 22:18:58 58° N
SJ 16-02 3.9 22:20:46 10° NNE 22:22:52 16° NE 22:22:52 16° NE
USA 234 4.5 22:21:02 10° ENE 22:24:48 28° E 22:24:48 28° E
Cosmos 2016 Rocket 4.1 22:41:08 71° N 22:41:08 71° N 22:46:44 10° N
Cosmos 2233 Rocket 4.4 22:41:26 56° ENE 22:41:26 56° ENE 22:46:57 10° NNE
Cosmos 1459 Rocket 4.5 22:41:57 54° NW 22:41:57 54° NW 22:47:25 10° N
CZ-4C R/B 4.2 22:42:43 10° NW 22:47:43 28° W 22:47:43 28° W
CENTAUR R/B 3.3 22:42:25 10° NNW 22:51:07 85° ENE 22:53:21 58° SE
Cosmos 968 Rocket 4.4 22:46:49 10° N 22:50:51 45° NNE 22:50:51 45° NNE
Cosmos 1725 Rocket 4.2 22:54:04 66° NW 22:54:04 66° NW 22:59:40 10° N
CZ-2D R/B 4.0 22:54:47 10° NE 22:58:04 19° E 22:58:04 19° E
Milstar 3 4.5 22:55:51 30° WSW 23:02:51 61° S 23:25:02 10° ESE
USA 281 4.1 23:17:01 34° WNW 23:17:01 34° WNW 23:21:29 10° NW
ADEOS II 4.0 23:12:08 10° NE 23:15:46 19° E 23:16:04 19° E
IDEFIX/ARIANE 42P 3.4 23:12:41 10° NNE 23:16:53 43° ENE 23:16:53 43° ENE
NPP 4.3 23:17:27 10° NNE 23:22:13 49° E 23:22:13 49° E
Resurs 1-4 Rocket 3.2 23:18:09 10° NNE 23:22:48 36° E 23:22:48 36° E
NOSS 3-2 (A) 4.1 23:29:18 10° NW 23:37:12 78° WSW 23:39:34 53° S
MSX 3.9 23:33:55 10° NNE 23:39:41 67° ESE 23:39:49 67° ESE
Meteor 1-27 Rocket 4.2 23:37:01 10° NNW 23:41:46 51° WNW 23:41:46 51° WNW
Tsikada Rocket 4.4 23:39:57 10° NNW 23:45:22 48° WNW 23:45:22 48° WNW
ATLAS CENTAUR R/B 3.4 23:48:54 43° WNW 23:50:02 48° NW 23:58:15 10° NE
Cosmos 1697 Rocket 2.7 23:53:04 69° ESE 23:53:11 69° ESE 23:58:46 10° NNE
